Hourly Data Report for April 25, 2018

MIRAMICHI RCS
NEW BRUNSWICK
Current Station Operator: ECCC - MSC

47°00'34.000" N
65°27'54.000" W
33.00 m
8100989
71744
ACQ

Download Data

Hourly Data (April 2018)
Hourly Data Report for April 25, 2018
TIME
LST
Temp Definition
°C
Dew Point Definition
°C
Rel Hum Definition
%
Precip. Amount Definition
mm

Wind Dir Definition
10's deg

Wind Spd Definition
km/h
Visibility Definition
km
Stn Press Definition
kPa
Hmdx Definition


Wind Chill Definition


Weather Definition


00:00 7.7 -0.2 57 0.0 23 18   101.51     LegendNANA
01:00 7.1 -0.5 58 0.0 24 16   101.51     LegendNANA
02:00 6.2 -0.5 62 0.0 23 15   101.51     LegendNANA
03:00 5.8 -0.5 64 0.0 23 16   101.53     LegendNANA
04:00 5.2 -0.1 69 0.0 22 16   101.48     LegendNANA
05:00 4.9 0.5 73 0.0 23 18   101.50     LegendNANA
06:00 4.4 0.7 77 0.0 22 15   101.50     LegendNANA
07:00 4.9 0.9 76 0.0 23 17   101.50     LegendNANA
08:00 5.8 1.0 71 0.0 23 20   101.52     LegendNANA
09:00 7.5 1.4 65 0.0 23 20   101.51     LegendNANA
10:00 8.6 1.3 61 0.0 23 19   101.51     LegendNANA
11:00 9.1 1.1 57 0.0 22 21   101.51     LegendNANA
12:00 10.1 1.3 54 0.0 22 27   101.49     LegendNANA
13:00 12.2 2.4 51 0.0 23 27   101.42     LegendNANA
14:00 13.9 4.0 51 0.0 23 26   101.37     LegendNANA
15:00 14.7 4.2 49 0.0 23 26   101.35     LegendNANA
16:00 14.4 5.8 56 0.0 22 30   101.35     LegendNANA
17:00 13.2 5.2 59 0.0 23 23   101.37     LegendNANA
18:00 12.5 4.8 59 0.0 22 19   101.39     LegendNANA
19:00 11.8 4.4 60 0.0 21 17   101.40     LegendNANA
20:00 12.0 4.7 61 0.0 21 15   101.43     LegendNANA
21:00 10.3 4.6 68 0.0 19 10   101.45     LegendNANA
22:00 9.7 5.8 77 0.0 19 7   101.42     LegendNANA
23:00 7.2 5.7 90 0.0 17 6   101.39     LegendNANA

Notes on Data Quality.

Legend

  • E = Estimated
  • M = Missing
  • NA = Not Available*
  • [empty] = Indicates an unobserved value
Date modified: